COSMOS 397 DEB, 5155

Orbit data source: Space-Track

COSMOS 397 DEB, 5155 is space debris in LEO originally from a launch on Thu, 25 Feb 1971 UTC launched from the Tyuratam Missile And Space Complex (TTMTR). Debris objects in space refer to the collection of defunct objects orbiting the Earth. Examples of debris include non-operational satellites, rocket bodies, and fragments generated from explosions, collisions, or faulty payload assembly.

Loading next visibility...
Identifier
5155, 1971-015AJ
Orbit
LEO
Country
Flag of CISCIS
Related business
Manufacturer
Unknown
Mission
Spacecraft
Bus & Motor
Unknown
Mass
Unknown
Launch date (UTC)
1971-02-25 (55 years ago)
Launch vehicle
Unknown
Launch site
Tyuratam Missile And Space Complex (TTMTR)
Object type
Payload
Rocket body
Debris
Shape & HBR
Unknown shape, 0.1 m
Radar Cross Section
Small (<0.1 m²)

Expand to show TLE details & history
Last TLE update: 12 hours ago

TLE from 12 hours ago
0 COSMOS 397 DEB
1 05155U 71015AJ  25346.76993411  .00014726  00000-0  19550-2 0  9992
2 05155  65.3539 141.5664 0285778  75.6834 287.5813 14.55413035720561
Epoch: 2025-12-12T18:28Z
TLE epoch observation values (Epoch: 2025-12-12T18:28:42.307Z)
Latitude
0.00005°
Longitude
142.68335°
Altitude
654.198 km
Speed
7.561 km/s
True Right ascension
09h 26m 15s
True Declination
0° 00' 00"
Sunlit
Object was in full shadow at epoch
Visualization orbit readout
Latitude
Unknown
Longitude
Unknown
Altitude
Unknown
Speed
Unknown
Apparent Right ascension
Unknown
Apparent Declination
Unknown
Sunlit
N/A
Visualization observer readout
Local Sidereal Time
05:24:08
Azimuth
Unknown
Elevation
Unknown
Doppler factor
Unknown
Orbital elements
Apogee altitude
909.005 km
Perigee altitude
504.076 km
Semi-major axis
7,084.677 km
Eccentricity
0.02858
Inclination
65.3539°
RAAN
141.5664°
Arg. of periapsis
75.6834°
True anomaly
284.42705°
Mean anomaly
287.5813°
Eccentric anomaly
286.0074°
Mean motion
3.63968 °/min
Orbital period
98.91 mins
BSTAR
0.001955
Loading maneuver chart data...
Computing Atmospheric mass density...

Documentation

Showing up to 5 results
|